When you browse on this site, cookies collect data to enhance your experience and personalize the content and advertising you see.
Visit our Privacy Policy to learn more. By continuing to use the site, you agree to this use of cookies and data.
  • In Germany
  • List of Countries
  • For 7 days
  • Water Temperature
  • Satellite Maps
  • Weather Map
  • Weather Widgets
  • user-avatar
    Login

    Hourly Weather Cuiaba

    Today, 17 November, Saturday

    Time Temperature Precipitation Wind Pressure Humidity
    00:00 +28°C° 0.1 mm 1 mps 738 mmHg 81%
    01:00 +25°C° 0.1 mm 0 mps 738 mmHg 81%
    02:00 +25°C° 0.1 mm 0 mps 738 mmHg 82%
    03:00 +25°C° 0 mm 0 mps 738 mmHg 82%
    04:00 +27°C° 0 mm 1 mps 738 mmHg 82%
    05:00 +27°C° 0 mm 1 mps 738 mmHg 82%
    06:00 +28°C° 0 mm 1 mps 738 mmHg 77%
    07:00 +30°C° 0 mm 1 mps 739 mmHg 72%
    08:00 +31°C° 0 mm 1 mps 739 mmHg 67%
    09:00 +33°C° 0.5 mm 1 mps 739 mmHg 62%
    10:00 +34°C° 0.5 mm 1 mps 739 mmHg 57%
    11:00 +37°C° 0.5 mm 2 mps 739 mmHg 51%
    12:00 +37°C° 0.3 mm 2 mps 738 mmHg 51%
    13:00 +37°C° 0.3 mm 2 mps 737 mmHg 51%
    14:00 +37°C° 0.3 mm 2 mps 736 mmHg 51%
    15:00 +35°C° 0.4 mm 1 mps 736 mmHg 55%
    16:00 +34°C° 0.4 mm 1 mps 736 mmHg 59%
    17:00 +33°C° 0.4 mm 1 mps 736 mmHg 62%
    18:00 +32°C° 0.4 mm 1 mps 737 mmHg 66%
    19:00 +31°C° 0.4 mm 1 mps 737 mmHg 70%
    20:00 +29°C° 0.4 mm 2 mps 738 mmHg 74%
    21:00 +29°C° 0.1 mm 2 mps 738 mmHg 76%
    22:00 +29°C° 0.1 mm 2 mps 738 mmHg 78%
    23:00 +28°C° 0.1 mm 1 mps 738 mmHg 80%

    Tomorrow, 18 November, Sunday

    Time Temperature Precipitation Wind Pressure Humidity
    00:00 +28°C° 0 mm 1 mps 738 mmHg 80%
    01:00 +28°C° 0 mm 1 mps 737 mmHg 80%
    02:00 +28°C° 0 mm 1 mps 737 mmHg 80%
    03:00 +27°C° 0 mm 1 mps 737 mmHg 81%
    04:00 +27°C° 0 mm 1 mps 737 mmHg 81%
    05:00 +27°C° 0 mm 2 mps 737 mmHg 82%
    06:00 +28°C° 0 mm 2 mps 738 mmHg 77%
    07:00 +30°C° 0 mm 2 mps 738 mmHg 73%
    08:00 +31°C° 0 mm 3 mps 739 mmHg 68%
    09:00 +34°C° 0.4 mm 3 mps 739 mmHg 62%
    10:00 +36°C° 0.4 mm 3 mps 739 mmHg 56%
    11:00 +37°C° 0.4 mm 3 mps 738 mmHg 50%
    12:00 +37°C° 0.3 mm 3 mps 738 mmHg 51%
    13:00 +37°C° 0.3 mm 2 mps 737 mmHg 51%
    14:00 +36°C° 0.3 mm 1 mps 736 mmHg 52%
    15:00 +35°C° 0.4 mm 1 mps 736 mmHg 55%
    16:00 +34°C° 0.4 mm 1 mps 736 mmHg 59%
    17:00 +33°C° 0.4 mm 1 mps 737 mmHg 62%
    18:00 +32°C° 0.6 mm 2 mps 737 mmHg 67%
    19:00 +30°C° 0.6 mm 2 mps 737 mmHg 72%
    20:00 +29°C° 0.6 mm 3 mps 738 mmHg 77%
    21:00 +28°C° 4.5 mm 3 mps 738 mmHg 82%
    22:00 +27°C° 4.5 mm 2 mps 738 mmHg 88%
    23:00 +27°C° 4.5 mm 2 mps 739 mmHg 93%

    Day after tomorrow, 19 November, Monday

    Time Temperature Precipitation Wind Pressure Humidity
    00:00 +26°C° 2 mm 2 mps 738 mmHg 93%
    01:00 +26°C° 2 mm 2 mps 738 mmHg 93%
    02:00 +26°C° 2 mm 2 mps 737 mmHg 94%
    03:00 +26°C° 0.7 mm 2 mps 737 mmHg 93%
    04:00 +26°C° 0.7 mm 2 mps 737 mmHg 93%
    05:00 +26°C° 0.7 mm 2 mps 737 mmHg 92%
    06:00 +26°C° 0.4 mm 2 mps 738 mmHg 92%
    07:00 +26°C° 0.4 mm 2 mps 739 mmHg 91%
    08:00 +27°C° 0.4 mm 2 mps 739 mmHg 90%
    09:00 +28°C° 0.1 mm 2 mps 739 mmHg 83%
    10:00 +30°C° 0.1 mm 2 mps 739 mmHg 76%
    11:00 +31°C° 0.1 mm 2 mps 739 mmHg 69%
    12:00 +32°C° 0.5 mm 2 mps 738 mmHg 68%
    13:00 +32°C° 0.5 mm 2 mps 737 mmHg 67%
    14:00 +34°C° 0.5 mm 2 mps 736 mmHg 66%
    15:00 +32°C° 1.4 mm 1 mps 736 mmHg 72%
    16:00 +31°C° 1.4 mm 1 mps 736 mmHg 77%
    17:00 +30°C° 1.4 mm 1 mps 736 mmHg 82%
    18:00 +29°C° 1.2 mm 1 mps 737 mmHg 84%
    19:00 +28°C° 1.2 mm 1 mps 737 mmHg 86%
    20:00 +27°C° 1.2 mm 1 mps 738 mmHg 88%
    21:00 +27°C° 0.4 mm 1 mps 738 mmHg 88%
    22:00 +25°C° 0.4 mm 0 mps 738 mmHg 89%
    23:00 +25°C° 0.4 mm 0 mps 739 mmHg 89%

    20 November, Tuesday

    Time Temperature Precipitation Wind Pressure Humidity
    00:00 +24°C° 0.2 mm 0 mps 738 mmHg 90%
    01:00 +24°C° 0.2 mm 0 mps 738 mmHg 90%
    02:00 +24°C° 0.2 mm 0 mps 737 mmHg 91%
    03:00 +24°C° 0.2 mm 0 mps 737 mmHg 91%
    04:00 +24°C° 0.2 mm 0 mps 738 mmHg 91%
    05:00 +24°C° 0.2 mm 0 mps 738 mmHg 91%
    06:00 +24°C° 0.2 mm 0 mps 739 mmHg 90%
    07:00 +27°C° 0.2 mm 1 mps 739 mmHg 88%
    08:00 +28°C° 0.2 mm 1 mps 740 mmHg 86%
    09:00 +29°C° 0.2 mm 1 mps 740 mmHg 81%
    10:00 +30°C° 0.2 mm 1 mps 740 mmHg 76%
    11:00 +31°C° 0.2 mm 1 mps 740 mmHg 71%
    12:00 +31°C° 0.6 mm 1 mps 739 mmHg 71%
    13:00 +31°C° 0.6 mm 2 mps 738 mmHg 70%
    14:00 +31°C° 0.6 mm 2 mps 737 mmHg 70%
    15:00 +31°C° 0.1 mm 2 mps 737 mmHg 73%
    16:00 +30°C° 0.1 mm 1 mps 737 mmHg 75%
    17:00 +30°C° 0.1 mm 1 mps 737 mmHg 78%
    18:00 +29°C° 0.6 mm 1 mps 737 mmHg 82%
    19:00 +28°C° 0.6 mm 1 mps 738 mmHg 85%
    20:00 +26°C° 0.6 mm 1 mps 738 mmHg 89%
    21:00 +26°C° 1 mm 1 mps 738 mmHg 91%
    22:00 +26°C° 1 mm 1 mps 739 mmHg 92%
    23:00 +25°C° 1 mm 1 mps 739 mmHg 93%

    21 November, Wednesday

    Time Temperature Precipitation Wind Pressure Humidity
    00:00 +25°C° 0.6 mm 1 mps 738 mmHg 94%
    01:00 +25°C° 0.6 mm 1 mps 738 mmHg 94%
    02:00 +25°C° 0.6 mm 1 mps 737 mmHg 95%
    03:00 +25°C° 0 mm 1 mps 738 mmHg 95%
    04:00 +25°C° 0 mm 1 mps 738 mmHg 94%
    05:00 +25°C° 0 mm 1 mps 738 mmHg 94%
    06:00 +26°C° 0.3 mm 1 mps 739 mmHg 92%
    07:00 +26°C° 0.3 mm 1 mps 739 mmHg 90%
    08:00 +27°C° 0.3 mm 2 mps 740 mmHg 88%
    09:00 +28°C° 1.1 mm 2 mps 740 mmHg 84%
    10:00 +29°C° 1.1 mm 2 mps 739 mmHg 81%
    11:00 +30°C° 1.1 mm 2 mps 739 mmHg 78%
    12:00 +30°C° 1.7 mm 2 mps 738 mmHg 77%
    13:00 +30°C° 1.7 mm 2 mps 738 mmHg 77%
    14:00 +30°C° 1.7 mm 2 mps 737 mmHg 77%
    15:00 +30°C° 1.6 mm 2 mps 737 mmHg 80%
    16:00 +29°C° 1.6 mm 1 mps 737 mmHg 84%
    17:00 +28°C° 1.6 mm 1 mps 737 mmHg 87%
    18:00 +28°C° 0.7 mm 1 mps 737 mmHg 89%
    19:00 +27°C° 0.7 mm 2 mps 738 mmHg 91%
    20:00 +26°C° 0.7 mm 2 mps 738 mmHg 93%
    21:00 +26°C° 0.8 mm 2 mps 738 mmHg 93%
    22:00 +25°C° 0.8 mm 2 mps 738 mmHg 94%
    23:00 +25°C° 0.8 mm 2 mps 738 mmHg 94%

    22 November, Thursday

    Time Temperature Precipitation Wind Pressure Humidity
    00:00 +25°C° 0.4 mm 2 mps 738 mmHg 95%
    01:00 +25°C° 0.4 mm 2 mps 737 mmHg 95%
    02:00 +25°C° 0.4 mm 2 mps 737 mmHg 96%
    03:00 +25°C° 0.5 mm 2 mps 737 mmHg 96%
    04:00 +25°C° 0.5 mm 2 mps 737 mmHg 96%
    05:00 +25°C° 0.5 mm 2 mps 737 mmHg 96%
    06:00 +25°C° 1.3 mm 2 mps 738 mmHg 95%
    07:00 +25°C° 1.3 mm 2 mps 738 mmHg 94%
    08:00 +25°C° 1.3 mm 2 mps 739 mmHg 94%
    09:00 +26°C° 1.2 mm 3 mps 739 mmHg 92%
    10:00 +26°C° 1.2 mm 3 mps 738 mmHg 91%
    11:00 +27°C° 1.2 mm 3 mps 738 mmHg 89%
    12:00 +27°C° 0.6 mm 4 mps 737 mmHg 86%
    13:00 +28°C° 0.6 mm 4 mps 737 mmHg 83%
    14:00 +29°C° 0.6 mm 4 mps 736 mmHg 80%
    15:00 +29°C° 0.4 mm 3 mps 736 mmHg 82%
    16:00 +28°C° 0.4 mm 3 mps 736 mmHg 83%
    17:00 +28°C° 0.4 mm 2 mps 735 mmHg 84%
    18:00 +27°C° 0 mm 2 mps 736 mmHg 86%
    19:00 +26°C° 0 mm 2 mps 736 mmHg 88%
    20:00 +26°C° 0 mm 2 mps 737 mmHg 90%
    21:00 +25°C° 0.2 mm 2 mps 737 mmHg 91%
    22:00 +25°C° 0.2 mm 2 mps 737 mmHg 91%
    23:00 +25°C° 0.2 mm 2 mps 737 mmHg 91%
    Show more